owner,sensor,date,latitude,longitude,vertical_datum,sea_water_temperature,qcFlag 
WAVCIS,ioos:station:WAVCIS:CSI03:1,2015-10-01T00:00:00Z,29.4412,-92.0613,10.0,-14.88,11144222 
WAVCIS,ioos:station:WAVCIS:CSI03:1,2015-10-01T01:00:00Z,29.4412,-92.0613,10.0,-14.45,11144222 
WAVCIS,ioos:station:WAVCIS:CSI03:1,2015-10-01T02:00:00Z,29.4412,-92.0613,10.0,-13.9,11144222 
WAVCIS,ioos:station:WAVCIS:CSI03:1,2015-10-01T03:00:00Z,29.4412,-92.0613,10.0,-14.01,11144222 
WAVCIS,ioos:station:WAVCIS:CSI03:1,2015-10-01T04:00:00Z,29.4412,-92.0613,10.0,-14.25,11144222 
WAVCIS,ioos:station:WAVCIS:CSI03:1,2015-10-01T05:00:00Z,29.4412,-92.0613,10.0,-14.39,11144222 
WAVCIS,ioos:station:WAVCIS:CSI03:1,2015-10-01T06:00:00Z,29.4412,-92.0613,10.0,-14.73,11144222 
WAVCIS,ioos:station:WAVCIS:CSI03:1,2015-10-01T07:00:00Z,29.4412,-92.0613,10.0,-14.63,11144222 
WAVCIS,ioos:station:WAVCIS:CSI03:1,2015-10-01T08:00:00Z,29.4412,-92.0613,10.0,-14.65,11144222 
WAVCIS,ioos:station:WAVCIS:CSI03:1,2015-10-01T09:00:00Z,29.4412,-92.0613,10.0,-14.39,11144222 
WAVCIS,ioos:station:WAVCIS:CSI03:1,2015-10-01T10:00:00Z,29.4412,-92.0613,10.0,-13.91,11144222 
WAVCIS,ioos:station:WAVCIS:CSI03:1,2015-10-01T11:00:00Z,29.4412,-92.0613,10.0,-13.67,11144222 
WAVCIS,ioos:station:WAVCIS:CSI03:1,2015-10-01T12:00:00Z,29.4412,-92.0613,10.0,-13.43,11144222 
WAVCIS,ioos:station:WAVCIS:CSI03:1,2015-10-01T13:00:00Z,29.4412,-92.0613,10.0,-13.3,11144222 
WAVCIS,ioos:station:WAVCIS:CSI03:1,2015-10-01T14:00:00Z,29.4412,-92.0613,10.0,-13.37,11144222 
WAVCIS,ioos:station:WAVCIS:CSI03:1,2015-10-01T15:00:00Z,29.4412,-92.0613,10.0,-12.96,11144222 
WAVCIS,ioos:station:WAVCIS:CSI03:1,2015-10-01T16:00:00Z,29.4412,-92.0613,10.0,-12.95,11144222 
WAVCIS,ioos:station:WAVCIS:CSI03:1,2015-10-01T17:00:00Z,29.4412,-92.0613,10.0,-12.83,11144222 
WAVCIS,ioos:station:WAVCIS:CSI03:1,2015-10-01T18:00:00Z,29.4412,-92.0613,10.0,-13.2,11144222 
WAVCIS,ioos:station:WAVCIS:CSI03:1,2015-10-01T19:00:00Z,29.4412,-92.0613,10.0,-13.4,11144222 
WAVCIS,ioos:station:WAVCIS:CSI03:1,2015-10-01T20:00:00Z,29.4412,-92.0613,10.0,-13.08,11144222 
WAVCIS,ioos:station:WAVCIS:CSI03:1,2015-10-01T21:00:00Z,29.4412,-92.0613,10.0,-13.02,11144222 
WAVCIS,ioos:station:WAVCIS:CSI03:1,2015-10-01T22:00:00Z,29.4412,-92.0613,10.0,-12.94,11144222 
WAVCIS,ioos:station:WAVCIS:CSI03:1,2015-10-01T23:00:00Z,29.4412,-92.0613,10.0,-12.58,11144222 
WAVCIS,ioos:station:WAVCIS:CSI03:1,2015-10-02T00:00:00Z,29.4412,-92.0613,10.0,-12.49,11144222 
WAVCIS,ioos:station:WAVCIS:CSI03:1,2015-10-02T01:00:00Z,29.4412,-92.0613,10.0,-12.42,11144222 
WAVCIS,ioos:station:WAVCIS:CSI03:1,2015-10-02T02:00:00Z,29.4412,-92.0613,10.0,-12.8,11144222 
WAVCIS,ioos:station:WAVCIS:CSI03:1,2015-10-02T03:00:00Z,29.4412,-92.0613,10.0,-12.19,11144222 
WAVCIS,ioos:station:WAVCIS:CSI03:1,2015-10-02T04:00:00Z,29.4412,-92.0613,10.0,-12.26,11144222 
WAVCIS,ioos:station:WAVCIS:CSI03:1,2015-10-02T05:00:00Z,29.4412,-92.0613,10.0,-12.06,11144222 
WAVCIS,ioos:station:WAVCIS:CSI03:1,2015-10-02T06:00:00Z,29.4412,-92.0613,10.0,-11.93,11144222 
WAVCIS,ioos:station:WAVCIS:CSI03:1,2015-10-02T07:00:00Z,29.4412,-92.0613,10.0,-11.98,11144222 
WAVCIS,ioos:station:WAVCIS:CSI03:1,2015-10-02T08:00:00Z,29.4412,-92.0613,10.0,-12.24,11144222 
WAVCIS,ioos:station:WAVCIS:CSI03:1,2015-10-02T09:00:00Z,29.4412,-92.0613,10.0,-12.21,11144222 
WAVCIS,ioos:station:WAVCIS:CSI03:1,2015-10-02T10:00:00Z,29.4412,-92.0613,10.0,-12.8,11144222 
WAVCIS,ioos:station:WAVCIS:CSI03:1,2015-10-02T11:00:00Z,29.4412,-92.0613,10.0,-12.76,11144222 
WAVCIS,ioos:station:WAVCIS:CSI03:1,2015-10-02T12:00:00Z,29.4412,-92.0613,10.0,-12.79,11144222 
WAVCIS,ioos:station:WAVCIS:CSI03:1,2015-10-02T13:00:00Z,29.4412,-92.0613,10.0,-12.98,11144222 
WAVCIS,ioos:station:WAVCIS:CSI03:1,2015-10-02T14:00:00Z,29.4412,-92.0613,10.0,-13.28,11144222 
WAVCIS,ioos:station:WAVCIS:CSI03:1,2015-10-02T15:00:00Z,29.4412,-92.0613,10.0,-13.14,11144222 
WAVCIS,ioos:station:WAVCIS:CSI03:1,2015-10-02T16:00:00Z,29.4412,-92.0613,10.0,-13.3,11144222 
WAVCIS,ioos:station:WAVCIS:CSI03:1,2015-10-02T17:00:00Z,29.4412,-92.0613,10.0,-13.41,11144222 
WAVCIS,ioos:station:WAVCIS:CSI03:1,2015-10-02T18:00:00Z,29.4412,-92.0613,10.0,-13.01,11144222 
WAVCIS,ioos:station:WAVCIS:CSI03:1,2015-10-02T19:00:00Z,29.4412,-92.0613,10.0,-12.41,11144222 
WAVCIS,ioos:station:WAVCIS:CSI03:1,2015-10-02T20:00:00Z,29.4412,-92.0613,10.0,-12.15,11144222 
WAVCIS,ioos:station:WAVCIS:CSI03:1,2015-10-02T21:00:00Z,29.4412,-92.0613,10.0,-12.5,11144222 
WAVCIS,ioos:station:WAVCIS:CSI03:1,2015-10-02T22:00:00Z,29.4412,-92.0613,10.0,-12.56,11144222 
WAVCIS,ioos:station:WAVCIS:CSI03:1,2015-10-02T23:00:00Z,29.4412,-92.0613,10.0,-13.05,11144222 
WAVCIS,ioos:station:WAVCIS:CSI03:1,2015-10-03T00:00:00Z,29.4412,-92.0613,10.0,-13.11,11144222 
WAVCIS,ioos:station:WAVCIS:CSI03:1,2015-10-03T01:00:00Z,29.4412,-92.0613,10.0,-12.89,11144222 
WAVCIS,ioos:station:WAVCIS:CSI03:1,2015-10-03T02:00:00Z,29.4412,-92.0613,10.0,-13.05,11144222 
WAVCIS,ioos:station:WAVCIS:CSI03:1,2015-10-03T03:00:00Z,29.4412,-92.0613,10.0,-13.61,11144222 
WAVCIS,ioos:station:WAVCIS:CSI03:1,2015-10-03T04:00:00Z,29.4412,-92.0613,10.0,-14.0,11144222 
WAVCIS,ioos:station:WAVCIS:CSI03:1,2015-10-03T05:00:00Z,29.4412,-92.0613,10.0,-13.99,11144222 
WAVCIS,ioos:station:WAVCIS:CSI03:1,2015-10-03T06:00:00Z,29.4412,-92.0613,10.0,-13.92,11144222 
WAVCIS,ioos:station:WAVCIS:CSI03:1,2015-10-03T07:00:00Z,29.4412,-92.0613,10.0,-13.89,11144222 
WAVCIS,ioos:station:WAVCIS:CSI03:1,2015-10-03T08:00:00Z,29.4412,-92.0613,10.0,-14.05,11144222 
WAVCIS,ioos:station:WAVCIS:CSI03:1,2015-10-03T09:00:00Z,29.4412,-92.0613,10.0,-14.43,11144222 
WAVCIS,ioos:station:WAVCIS:CSI03:1,2015-10-03T10:00:00Z,29.4412,-92.0613,10.0,-14.41,11144222 
WAVCIS,ioos:station:WAVCIS:CSI03:1,2015-10-03T11:00:00Z,29.4412,-92.0613,10.0,-14.38,11144222 
WAVCIS,ioos:station:WAVCIS:CSI03:1,2015-10-03T12:00:00Z,29.4412,-92.0613,10.0,-14.42,11144222 
WAVCIS,ioos:station:WAVCIS:CSI03:1,2015-10-03T13:00:00Z,29.4412,-92.0613,10.0,-14.67,11144222 
WAVCIS,ioos:station:WAVCIS:CSI03:1,2015-10-03T14:00:00Z,29.4412,-92.0613,10.0,-14.58,11144222 
WAVCIS,ioos:station:WAVCIS:CSI03:1,2015-10-03T15:00:00Z,29.4412,-92.0613,10.0,-14.64,11144222 
WAVCIS,ioos:station:WAVCIS:CSI03:1,2015-10-03T16:00:00Z,29.4412,-92.0613,10.0,-15.21,11144222 
WAVCIS,ioos:station:WAVCIS:CSI03:1,2015-10-03T17:00:00Z,29.4412,-92.0613,10.0,-15.27,11144222 
WAVCIS,ioos:station:WAVCIS:CSI03:1,2015-10-03T18:00:00Z,29.4412,-92.0613,10.0,-15.07,11144222 
WAVCIS,ioos:station:WAVCIS:CSI03:1,2015-10-03T19:00:00Z,29.4412,-92.0613,10.0,-15.04,11144222 
WAVCIS,ioos:station:WAVCIS:CSI03:1,2015-10-03T20:00:00Z,29.4412,-92.0613,10.0,-15.56,11144222 
WAVCIS,ioos:station:WAVCIS:CSI03:1,2015-10-03T21:00:00Z,29.4412,-92.0613,10.0,-16.03,11144222 
WAVCIS,ioos:station:WAVCIS:CSI03:1,2015-10-03T22:00:00Z,29.4412,-92.0613,10.0,-15.6,11144222 
WAVCIS,ioos:station:WAVCIS:CSI03:1,2015-10-03T23:00:00Z,29.4412,-92.0613,10.0,-15.69,11144222 
WAVCIS,ioos:station:WAVCIS:CSI03:1,2015-10-04T00:00:00Z,29.4412,-92.0613,10.0,-15.69,11144222 
WAVCIS,ioos:station:WAVCIS:CSI03:1,2015-10-04T01:00:00Z,29.4412,-92.0613,10.0,-15.78,11144222 
WAVCIS,ioos:station:WAVCIS:CSI03:1,2015-10-04T02:00:00Z,29.4412,-92.0613,10.0,-15.75,11144222 
WAVCIS,ioos:station:WAVCIS:CSI03:1,2015-10-04T03:00:00Z,29.4412,-92.0613,10.0,-15.36,11144222 
WAVCIS,ioos:station:WAVCIS:CSI03:1,2015-10-04T04:00:00Z,29.4412,-92.0613,10.0,-14.77,11144222 
WAVCIS,ioos:station:WAVCIS:CSI03:1,2015-10-04T05:00:00Z,29.4412,-92.0613,10.0,-14.68,11144222 
WAVCIS,ioos:station:WAVCIS:CSI03:1,2015-10-04T06:00:00Z,29.4412,-92.0613,10.0,-14.87,11144222 
WAVCIS,ioos:station:WAVCIS:CSI03:1,2015-10-04T07:00:00Z,29.4412,-92.0613,10.0,-14.86,11144222 
WAVCIS,ioos:station:WAVCIS:CSI03:1,2015-10-04T08:00:00Z,29.4412,-92.0613,10.0,-14.98,11144222 
WAVCIS,ioos:station:WAVCIS:CSI03:1,2015-10-04T09:00:00Z,29.4412,-92.0613,10.0,-15.05,11144222 
WAVCIS,ioos:station:WAVCIS:CSI03:1,2015-10-04T10:00:00Z,29.4412,-92.0613,10.0,-15.55,11144222 
WAVCIS,ioos:station:WAVCIS:CSI03:1,2015-10-04T11:00:00Z,29.4412,-92.0613,10.0,-15.28,11144222 
WAVCIS,ioos:station:WAVCIS:CSI03:1,2015-10-04T12:00:00Z,29.4412,-92.0613,10.0,-15.6,11144222 
WAVCIS,ioos:station:WAVCIS:CSI03:1,2015-10-04T13:00:00Z,29.4412,-92.0613,10.0,-16.24,11144222 
WAVCIS,ioos:station:WAVCIS:CSI03:1,2015-10-04T14:00:00Z,29.4412,-92.0613,10.0,-16.09,11144222 
WAVCIS,ioos:station:WAVCIS:CSI03:1,2015-10-04T15:00:00Z,29.4412,-92.0613,10.0,-15.59,11144222 
WAVCIS,ioos:station:WAVCIS:CSI03:1,2015-10-04T16:00:00Z,29.4412,-92.0613,10.0,-15.54,11144222 
WAVCIS,ioos:station:WAVCIS:CSI03:1,2015-10-04T17:00:00Z,29.4412,-92.0613,10.0,-15.33,11144222 
WAVCIS,ioos:station:WAVCIS:CSI03:1,2015-10-04T18:00:00Z,29.4412,-92.0613,10.0,-15.65,11144222 
WAVCIS,ioos:station:WAVCIS:CSI03:1,2015-10-04T19:00:00Z,29.4412,-92.0613,10.0,-15.37,11144222 
WAVCIS,ioos:station:WAVCIS:CSI03:1,2015-10-04T20:00:00Z,29.4412,-92.0613,10.0,-14.76,11144222 
WAVCIS,ioos:station:WAVCIS:CSI03:1,2015-10-04T21:00:00Z,29.4412,-92.0613,10.0,-14.87,11144222 
WAVCIS,ioos:station:WAVCIS:CSI03:1,2015-10-04T22:00:00Z,29.4412,-92.0613,10.0,-15.06,11144222 
WAVCIS,ioos:station:WAVCIS:CSI03:1,2015-10-04T23:00:00Z,29.4412,-92.0613,10.0,-15.35,11144222 
WAVCIS,ioos:station:WAVCIS:CSI03:1,2015-10-05T00:00:00Z,29.4412,-92.0613,10.0,-14.97,11144222 
WAVCIS,ioos:station:WAVCIS:CSI03:1,2015-10-05T01:00:00Z,29.4412,-92.0613,10.0,-14.7,11144222 
WAVCIS,ioos:station:WAVCIS:CSI03:1,2015-10-05T02:00:00Z,29.4412,-92.0613,10.0,-14.94,11144222 
WAVCIS,ioos:station:WAVCIS:CSI03:1,2015-10-05T03:00:00Z,29.4412,-92.0613,10.0,-15.01,11144222 
WAVCIS,ioos:station:WAVCIS:CSI03:1,2015-10-05T04:00:00Z,29.4412,-92.0613,10.0,-15.24,11144222 
WAVCIS,ioos:station:WAVCIS:CSI03:1,2015-10-05T05:00:00Z,29.4412,-92.0613,10.0,-14.99,11144222 
WAVCIS,ioos:station:WAVCIS:CSI03:1,2015-10-05T06:00:00Z,29.4412,-92.0613,10.0,-14.88,11144222 
WAVCIS,ioos:station:WAVCIS:CSI03:1,2015-10-05T07:00:00Z,29.4412,-92.0613,10.0,-14.9,11144222 
WAVCIS,ioos:station:WAVCIS:CSI03:1,2015-10-05T08:00:00Z,29.4412,-92.0613,10.0,-15.59,11144222 
WAVCIS,ioos:station:WAVCIS:CSI03:1,2015-10-05T09:00:00Z,29.4412,-92.0613,10.0,-15.93,11144222 
WAVCIS,ioos:station:WAVCIS:CSI03:1,2015-10-05T10:00:00Z,29.4412,-92.0613,10.0,-16.38,11144222 
WAVCIS,ioos:station:WAVCIS:CSI03:1,2015-10-05T11:00:00Z,29.4412,-92.0613,10.0,-16.56,11144222 
WAVCIS,ioos:station:WAVCIS:CSI03:1,2015-10-05T12:00:00Z,29.4412,-92.0613,10.0,-17.0,11144222 
WAVCIS,ioos:station:WAVCIS:CSI03:1,2015-10-05T13:00:00Z,29.4412,-92.0613,10.0,-16.94,11144222 
WAVCIS,ioos:station:WAVCIS:CSI03:1,2015-10-05T14:00:00Z,29.4412,-92.0613,10.0,-16.68,11144222 
WAVCIS,ioos:station:WAVCIS:CSI03:1,2015-10-05T15:00:00Z,29.4412,-92.0613,10.0,-16.34,11144222 
WAVCIS,ioos:station:WAVCIS:CSI03:1,2015-10-05T16:00:00Z,29.4412,-92.0613,10.0,-16.49,11144222 
WAVCIS,ioos:station:WAVCIS:CSI03:1,2015-10-05T17:00:00Z,29.4412,-92.0613,10.0,-16.18,11144222 
WAVCIS,ioos:station:WAVCIS:CSI03:1,2015-10-05T18:00:00Z,29.4412,-92.0613,10.0,-16.1,11144222 
WAVCIS,ioos:station:WAVCIS:CSI03:1,2015-10-05T19:00:00Z,29.4412,-92.0613,10.0,-15.36,11144222 
WAVCIS,ioos:station:WAVCIS:CSI03:1,2015-10-05T20:00:00Z,29.4412,-92.0613,10.0,-15.45,11144222 
WAVCIS,ioos:station:WAVCIS:CSI03:1,2015-10-05T21:00:00Z,29.4412,-92.0613,10.0,-15.86,11144222 
WAVCIS,ioos:station:WAVCIS:CSI03:1,2015-10-05T22:00:00Z,29.4412,-92.0613,10.0,-15.76,11144222 
WAVCIS,ioos:station:WAVCIS:CSI03:1,2015-10-05T23:00:00Z,29.4412,-92.0613,10.0,-15.73,11144222 
WAVCIS,ioos:station:WAVCIS:CSI03:1,2015-10-06T00:00:00Z,29.4412,-92.0613,10.0,-15.74,11144222 
WAVCIS,ioos:station:WAVCIS:CSI03:1,2015-10-06T01:00:00Z,29.4412,-92.0613,10.0,-15.74,11144222 
WAVCIS,ioos:station:WAVCIS:CSI03:1,2015-10-06T02:00:00Z,29.4412,-92.0613,10.0,-16.35,11144222 
WAVCIS,ioos:station:WAVCIS:CSI03:1,2015-10-06T03:00:00Z,29.4412,-92.0613,10.0,-16.81,11144222 
WAVCIS,ioos:station:WAVCIS:CSI03:1,2015-10-06T04:00:00Z,29.4412,-92.0613,10.0,-16.47,11144222 
WAVCIS,ioos:station:WAVCIS:CSI03:1,2015-10-06T05:00:00Z,29.4412,-92.0613,10.0,-17.03,11144222 
WAVCIS,ioos:station:WAVCIS:CSI03:1,2015-10-06T06:00:00Z,29.4412,-92.0613,10.0,-17.04,11144222 
WAVCIS,ioos:station:WAVCIS:CSI03:1,2015-10-06T07:00:00Z,29.4412,-92.0613,10.0,-17.69,11144222 
WAVCIS,ioos:station:WAVCIS:CSI03:1,2015-10-06T08:00:00Z,29.4412,-92.0613,10.0,-17.31,11144222 
WAVCIS,ioos:station:WAVCIS:CSI03:1,2015-10-06T09:00:00Z,29.4412,-92.0613,10.0,-17.04,11144222 
WAVCIS,ioos:station:WAVCIS:CSI03:1,2015-10-06T10:00:00Z,29.4412,-92.0613,10.0,-17.34,11144222 
WAVCIS,ioos:station:WAVCIS:CSI03:1,2015-10-06T11:00:00Z,29.4412,-92.0613,10.0,-17.48,11144222 
WAVCIS,ioos:station:WAVCIS:CSI03:1,2015-10-06T12:00:00Z,29.4412,-92.0613,10.0,-17.98,11144222 
WAVCIS,ioos:station:WAVCIS:CSI03:1,2015-10-06T13:00:00Z,29.4412,-92.0613,10.0,-17.28,11144222 
WAVCIS,ioos:station:WAVCIS:CSI03:1,2015-10-06T14:00:00Z,29.4412,-92.0613,10.0,-17.88,11144222 
WAVCIS,ioos:station:WAVCIS:CSI03:1,2015-10-06T15:00:00Z,29.4412,-92.0613,10.0,-17.73,11144222 
WAVCIS,ioos:station:WAVCIS:CSI03:1,2015-10-06T16:00:00Z,29.4412,-92.0613,10.0,-16.82,11144222 
WAVCIS,ioos:station:WAVCIS:CSI03:1,2015-10-06T17:00:00Z,29.4412,-92.0613,10.0,-16.62,11144222 
WAVCIS,ioos:station:WAVCIS:CSI03:1,2015-10-06T18:00:00Z,29.4412,-92.0613,10.0,-16.63,11144222 
WAVCIS,ioos:station:WAVCIS:CSI03:1,2015-10-06T19:00:00Z,29.4412,-92.0613,10.0,-16.03,11144222 
WAVCIS,ioos:station:WAVCIS:CSI03:1,2015-10-06T20:00:00Z,29.4412,-92.0613,10.0,-15.68,11144222 
WAVCIS,ioos:station:WAVCIS:CSI03:1,2015-10-06T21:00:00Z,29.4412,-92.0613,10.0,-15.97,11144222 
WAVCIS,ioos:station:WAVCIS:CSI03:1,2015-10-06T22:00:00Z,29.4412,-92.0613,10.0,-16.06,11144222 
WAVCIS,ioos:station:WAVCIS:CSI03:1,2015-10-06T23:00:00Z,29.4412,-92.0613,10.0,-15.75,11144222 
WAVCIS,ioos:station:WAVCIS:CSI03:1,2015-10-07T00:00:00Z,29.4412,-92.0613,10.0,-15.68,11144222 
WAVCIS,ioos:station:WAVCIS:CSI03:1,2015-10-07T01:00:00Z,29.4412,-92.0613,10.0,-16.2,11144222 
WAVCIS,ioos:station:WAVCIS:CSI03:1,2015-10-07T02:00:00Z,29.4412,-92.0613,10.0,-16.21,11144222 
WAVCIS,ioos:station:WAVCIS:CSI03:1,2015-10-07T03:00:00Z,29.4412,-92.0613,10.0,-16.18,11144222 
WAVCIS,ioos:station:WAVCIS:CSI03:1,2015-10-07T04:00:00Z,29.4412,-92.0613,10.0,-16.04,11144222 
WAVCIS,ioos:station:WAVCIS:CSI03:1,2015-10-07T05:00:00Z,29.4412,-92.0613,10.0,-15.66,11144222 
WAVCIS,ioos:station:WAVCIS:CSI03:1,2015-10-07T06:00:00Z,29.4412,-92.0613,10.0,-15.84,11144222 
WAVCIS,ioos:station:WAVCIS:CSI03:1,2015-10-07T07:00:00Z,29.4412,-92.0613,10.0,-15.85,11144222 
WAVCIS,ioos:station:WAVCIS:CSI03:1,2015-10-07T08:00:00Z,29.4412,-92.0613,10.0,-15.77,11144222 
WAVCIS,ioos:station:WAVCIS:CSI03:1,2015-10-07T09:00:00Z,29.4412,-92.0613,10.0,-16.16,11144222 
WAVCIS,ioos:station:WAVCIS:CSI03:1,2015-10-07T10:00:00Z,29.4412,-92.0613,10.0,-15.9,11144222 
WAVCIS,ioos:station:WAVCIS:CSI03:1,2015-10-07T11:00:00Z,29.4412,-92.0613,10.0,-15.5,11144222 
WAVCIS,ioos:station:WAVCIS:CSI03:1,2015-10-07T12:00:00Z,29.4412,-92.0613,10.0,-15.15,11144222 
WAVCIS,ioos:station:WAVCIS:CSI03:1,2015-10-07T13:00:00Z,29.4412,-92.0613,10.0,-15.35,11144222 
WAVCIS,ioos:station:WAVCIS:CSI03:1,2015-10-07T14:00:00Z,29.4412,-92.0613,10.0,-16.07,11144222 
WAVCIS,ioos:station:WAVCIS:CSI03:1,2015-10-07T15:00:00Z,29.4412,-92.0613,10.0,-16.04,11144222 
WAVCIS,ioos:station:WAVCIS:CSI03:1,2015-10-07T16:00:00Z,29.4412,-92.0613,10.0,-15.27,11144222 
WAVCIS,ioos:station:WAVCIS:CSI03:1,2015-10-07T17:00:00Z,29.4412,-92.0613,10.0,-14.9,11144222 
WAVCIS,ioos:station:WAVCIS:CSI03:1,2015-10-07T18:00:00Z,29.4412,-92.0613,10.0,-14.56,11144222 
WAVCIS,ioos:station:WAVCIS:CSI03:1,2015-10-07T19:00:00Z,29.4412,-92.0613,10.0,-14.13,11144222 
WAVCIS,ioos:station:WAVCIS:CSI03:1,2015-10-07T20:00:00Z,29.4412,-92.0613,10.0,-13.9,11144222 
WAVCIS,ioos:station:WAVCIS:CSI03:1,2015-10-07T21:00:00Z,29.4412,-92.0613,10.0,-14.4,11144222 
WAVCIS,ioos:station:WAVCIS:CSI03:1,2015-10-07T22:00:00Z,29.4412,-92.0613,10.0,-13.95,11144222 
WAVCIS,ioos:station:WAVCIS:CSI03:1,2015-10-07T23:00:00Z,29.4412,-92.0613,10.0,-14.04,11144222 
WAVCIS,ioos:station:WAVCIS:CSI03:1,2015-10-08T00:00:00Z,29.4412,-92.0613,10.0,-14.38,11144222 
WAVCIS,ioos:station:WAVCIS:CSI03:1,2015-10-08T01:00:00Z,29.4412,-92.0613,10.0,-14.21,11144222 
WAVCIS,ioos:station:WAVCIS:CSI03:1,2015-10-08T02:00:00Z,29.4412,-92.0613,10.0,-14.32,11144222 
WAVCIS,ioos:station:WAVCIS:CSI03:1,2015-10-08T03:00:00Z,29.4412,-92.0613,10.0,-14.47,11144222 
WAVCIS,ioos:station:WAVCIS:CSI03:1,2015-10-08T04:00:00Z,29.4412,-92.0613,10.0,-14.7,11144222 
WAVCIS,ioos:station:WAVCIS:CSI03:1,2015-10-08T05:00:00Z,29.4412,-92.0613,10.0,-14.86,11144222 
WAVCIS,ioos:station:WAVCIS:CSI03:1,2015-10-08T06:00:00Z,29.4412,-92.0613,10.0,-14.98,11144222 
WAVCIS,ioos:station:WAVCIS:CSI03:1,2015-10-08T07:00:00Z,29.4412,-92.0613,10.0,-15.11,11144222 
WAVCIS,ioos:station:WAVCIS:CSI03:1,2015-10-08T08:00:00Z,29.4412,-92.0613,10.0,-15.0,11144222 
WAVCIS,ioos:station:WAVCIS:CSI03:1,2015-10-08T09:00:00Z,29.4412,-92.0613,10.0,-14.84,11144222 
WAVCIS,ioos:station:WAVCIS:CSI03:1,2015-10-08T10:00:00Z,29.4412,-92.0613,10.0,-15.29,11144222 
WAVCIS,ioos:station:WAVCIS:CSI03:1,2015-10-08T11:00:00Z,29.4412,-92.0613,10.0,-15.46,11144222 
WAVCIS,ioos:station:WAVCIS:CSI03:1,2015-10-08T12:00:00Z,29.4412,-92.0613,10.0,-15.34,11144222 
WAVCIS,ioos:station:WAVCIS:CSI03:1,2015-10-08T13:00:00Z,29.4412,-92.0613,10.0,-15.21,11144222 
WAVCIS,ioos:station:WAVCIS:CSI03:1,2015-10-08T14:00:00Z,29.4412,-92.0613,10.0,-15.56,11144222 
WAVCIS,ioos:station:WAVCIS:CSI03:1,2015-10-08T15:00:00Z,29.4412,-92.0613,10.0,-15.52,11144222 
WAVCIS,ioos:station:WAVCIS:CSI03:1,2015-10-08T16:00:00Z,29.4412,-92.0613,10.0,-15.26,11144222 
WAVCIS,ioos:station:WAVCIS:CSI03:1,2015-10-08T17:00:00Z,29.4412,-92.0613,10.0,-15.62,11144222 
WAVCIS,ioos:station:WAVCIS:CSI03:1,2015-10-08T18:00:00Z,29.4412,-92.0613,10.0,-15.59,11144222 
WAVCIS,ioos:station:WAVCIS:CSI03:1,2015-10-08T19:00:00Z,29.4412,-92.0613,10.0,-15.77,11144222 
WAVCIS,ioos:station:WAVCIS:CSI03:1,2015-10-08T20:00:00Z,29.4412,-92.0613,10.0,-15.58,11144222 
WAVCIS,ioos:station:WAVCIS:CSI03:1,2015-10-08T21:00:00Z,29.4412,-92.0613,10.0,-15.78,11144222 
WAVCIS,ioos:station:WAVCIS:CSI03:1,2015-10-08T22:00:00Z,29.4412,-92.0613,10.0,-15.04,11144222 
WAVCIS,ioos:station:WAVCIS:CSI03:1,2015-10-08T23:00:00Z,29.4412,-92.0613,10.0,-15.01,11144222 
WAVCIS,ioos:station:WAVCIS:CSI03:1,2015-10-09T00:00:00Z,29.4412,-92.0613,10.0,-14.24,11144222 
WAVCIS,ioos:station:WAVCIS:CSI03:1,2015-10-09T01:00:00Z,29.4412,-92.0613,10.0,-13.39,11144222 
WAVCIS,ioos:station:WAVCIS:CSI03:1,2015-10-09T02:00:00Z,29.4412,-92.0613,10.0,-13.28,11144222 
WAVCIS,ioos:station:WAVCIS:CSI03:1,2015-10-09T03:00:00Z,29.4412,-92.0613,10.0,-13.31,11144222 
WAVCIS,ioos:station:WAVCIS:CSI03:1,2015-10-09T04:00:00Z,29.4412,-92.0613,10.0,-13.3,11144222 
WAVCIS,ioos:station:WAVCIS:CSI03:1,2015-10-09T05:00:00Z,29.4412,-92.0613,10.0,-13.54,11144222 
WAVCIS,ioos:station:WAVCIS:CSI03:1,2015-10-09T06:00:00Z,29.4412,-92.0613,10.0,-13.52,11144222 
WAVCIS,ioos:station:WAVCIS:CSI03:1,2015-10-09T07:00:00Z,29.4412,-92.0613,10.0,-13.97,11144222 
WAVCIS,ioos:station:WAVCIS:CSI03:1,2015-10-09T08:00:00Z,29.4412,-92.0613,10.0,-14.23,11144222 
WAVCIS,ioos:station:WAVCIS:CSI03:1,2015-10-09T09:00:00Z,29.4412,-92.0613,10.0,-14.33,11144222 
WAVCIS,ioos:station:WAVCIS:CSI03:1,2015-10-09T10:00:00Z,29.4412,-92.0613,10.0,-14.31,11144222 
WAVCIS,ioos:station:WAVCIS:CSI03:1,2015-10-09T11:00:00Z,29.4412,-92.0613,10.0,-14.07,11144222 
WAVCIS,ioos:station:WAVCIS:CSI03:1,2015-10-09T12:00:00Z,29.4412,-92.0613,10.0,-14.57,11144222 
WAVCIS,ioos:station:WAVCIS:CSI03:1,2015-10-09T13:00:00Z,29.4412,-92.0613,10.0,-15.26,11144222 
WAVCIS,ioos:station:WAVCIS:CSI03:1,2015-10-09T14:00:00Z,29.4412,-92.0613,10.0,-15.1,11144222 
WAVCIS,ioos:station:WAVCIS:CSI03:1,2015-10-09T15:00:00Z,29.4412,-92.0613,10.0,-15.2,11144222 
WAVCIS,ioos:station:WAVCIS:CSI03:1,2015-10-09T16:00:00Z,29.4412,-92.0613,10.0,-16.0,11144222 
WAVCIS,ioos:station:WAVCIS:CSI03:1,2015-10-09T17:00:00Z,29.4412,-92.0613,10.0,-16.32,11144222 
WAVCIS,ioos:station:WAVCIS:CSI03:1,2015-10-09T18:00:00Z,29.4412,-92.0613,10.0,-16.29,11144222 
WAVCIS,ioos:station:WAVCIS:CSI03:1,2015-10-09T19:00:00Z,29.4412,-92.0613,10.0,-15.96,11144222 
WAVCIS,ioos:station:WAVCIS:CSI03:1,2015-10-09T20:00:00Z,29.4412,-92.0613,10.0,-15.58,11144222 
WAVCIS,ioos:station:WAVCIS:CSI03:1,2015-10-09T21:00:00Z,29.4412,-92.0613,10.0,-14.92,11144222 
WAVCIS,ioos:station:WAVCIS:CSI03:1,2015-10-09T22:00:00Z,29.4412,-92.0613,10.0,-14.62,11144222 
WAVCIS,ioos:station:WAVCIS:CSI03:1,2015-10-09T23:00:00Z,29.4412,-92.0613,10.0,-14.77,11144222 
WAVCIS,ioos:station:WAVCIS:CSI03:1,2015-10-10T00:00:00Z,29.4412,-92.0613,10.0,-14.53,11144222 
WAVCIS,ioos:station:WAVCIS:CSI03:1,2015-10-10T01:00:00Z,29.4412,-92.0613,10.0,-15.41,11144222 
WAVCIS,ioos:station:WAVCIS:CSI03:1,2015-10-10T02:00:00Z,29.4412,-92.0613,10.0,-15.42,11144222 
WAVCIS,ioos:station:WAVCIS:CSI03:1,2015-10-10T03:00:00Z,29.4412,-92.0613,10.0,-15.74,11144222 
WAVCIS,ioos:station:WAVCIS:CSI03:1,2015-10-10T04:00:00Z,29.4412,-92.0613,10.0,-15.71,11144222 
WAVCIS,ioos:station:WAVCIS:CSI03:1,2015-10-10T05:00:00Z,29.4412,-92.0613,10.0,-15.0,11144222 
WAVCIS,ioos:station:WAVCIS:CSI03:1,2015-10-10T06:00:00Z,29.4412,-92.0613,10.0,-15.53,11144222 
WAVCIS,ioos:station:WAVCIS:CSI03:1,2015-10-10T07:00:00Z,29.4412,-92.0613,10.0,-15.84,11144222 
WAVCIS,ioos:station:WAVCIS:CSI03:1,2015-10-10T08:00:00Z,29.4412,-92.0613,10.0,-15.4,11144222 
WAVCIS,ioos:station:WAVCIS:CSI03:1,2015-10-10T09:00:00Z,29.4412,-92.0613,10.0,-15.38,11144222 
WAVCIS,ioos:station:WAVCIS:CSI03:1,2015-10-10T10:00:00Z,29.4412,-92.0613,10.0,-15.55,11144222 
WAVCIS,ioos:station:WAVCIS:CSI03:1,2015-10-10T11:00:00Z,29.4412,-92.0613,10.0,-14.88,11144222 
WAVCIS,ioos:station:WAVCIS:CSI03:1,2015-10-10T12:00:00Z,29.4412,-92.0613,10.0,-14.64,11144222 
WAVCIS,ioos:station:WAVCIS:CSI03:1,2015-10-10T13:00:00Z,29.4412,-92.0613,10.0,-14.96,11144222 
WAVCIS,ioos:station:WAVCIS:CSI03:1,2015-10-10T14:00:00Z,29.4412,-92.0613,10.0,-14.98,11144222 
WAVCIS,ioos:station:WAVCIS:CSI03:1,2015-10-10T15:00:00Z,29.4412,-92.0613,10.0,-15.01,11144222 
WAVCIS,ioos:station:WAVCIS:CSI03:1,2015-10-10T16:00:00Z,29.4412,-92.0613,10.0,-15.53,11144222 
WAVCIS,ioos:station:WAVCIS:CSI03:1,2015-10-10T17:00:00Z,29.4412,-92.0613,10.0,-15.49,11144222 
WAVCIS,ioos:station:WAVCIS:CSI03:1,2015-10-10T18:00:00Z,29.4412,-92.0613,10.0,-15.65,11144222 
WAVCIS,ioos:station:WAVCIS:CSI03:1,2015-10-10T19:00:00Z,29.4412,-92.0613,10.0,-15.73,11144222 
WAVCIS,ioos:station:WAVCIS:CSI03:1,2015-10-10T20:00:00Z,29.4412,-92.0613,10.0,-15.94,11144222 
WAVCIS,ioos:station:WAVCIS:CSI03:1,2015-10-10T21:00:00Z,29.4412,-92.0613,10.0,-15.93,11144222 
WAVCIS,ioos:station:WAVCIS:CSI03:1,2015-10-10T22:00:00Z,29.4412,-92.0613,10.0,-15.9,11144222 
WAVCIS,ioos:station:WAVCIS:CSI03:1,2015-10-10T23:00:00Z,29.4412,-92.0613,10.0,-15.82,11144222 
WAVCIS,ioos:station:WAVCIS:CSI03:1,2015-10-11T00:00:00Z,29.4412,-92.0613,10.0,-16.27,11144222 
WAVCIS,ioos:station:WAVCIS:CSI03:1,2015-10-11T01:00:00Z,29.4412,-92.0613,10.0,-16.42,11144222 
WAVCIS,ioos:station:WAVCIS:CSI03:1,2015-10-11T02:00:00Z,29.4412,-92.0613,10.0,-16.58,11144222 
WAVCIS,ioos:station:WAVCIS:CSI03:1,2015-10-11T03:00:00Z,29.4412,-92.0613,10.0,-16.46,11144222 
WAVCIS,ioos:station:WAVCIS:CSI03:1,2015-10-11T04:00:00Z,29.4412,-92.0613,10.0,-16.02,11144222 
WAVCIS,ioos:station:WAVCIS:CSI03:1,2015-10-11T05:00:00Z,29.4412,-92.0613,10.0,-15.77,11144222 
WAVCIS,ioos:station:WAVCIS:CSI03:1,2015-10-11T06:00:00Z,29.4412,-92.0613,10.0,-15.68,11144222 
WAVCIS,ioos:station:WAVCIS:CSI03:1,2015-10-11T07:00:00Z,29.4412,-92.0613,10.0,-15.38,11144222 
WAVCIS,ioos:station:WAVCIS:CSI03:1,2015-10-11T08:00:00Z,29.4412,-92.0613,10.0,-15.11,11144222 
WAVCIS,ioos:station:WAVCIS:CSI03:1,2015-10-11T09:00:00Z,29.4412,-92.0613,10.0,-15.39,11144222 
WAVCIS,ioos:station:WAVCIS:CSI03:1,2015-10-11T10:00:00Z,29.4412,-92.0613,10.0,-15.78,11144222 
WAVCIS,ioos:station:WAVCIS:CSI03:1,2015-10-11T11:00:00Z,29.4412,-92.0613,10.0,-15.98,11144222 